Flag for Australia Weather past 2 weeks in Townsville, Queensland, Australia

Now
84 °F

Broken clouds.


Feels Like: 92 °F
Forecast: 78 / 87 °F
Wind: 7 mph from Southeast

Location: Townsville Amo

Current Time: Mar 7, 2015 at 8:45:14 AM

Latest Report: Mar 7, 2015 at 8:00 AM


Visibility: N/A

Pressure: 29.74 "Hg

Humidity: 74%

Dew point: 75 °F

Location of TownsvilleLocation

Historic Weather in Townsville — Graph

°F

Townsville temperature yesterday

Maximum temperature yesterday: 95 °F (at 12:30 PM)
Minimum temperature yesterday: 79 °F (at 5:00 AM)
Average temperature yesterday: 86 °F

Past Weeks' High & Low Weather Summary

 TemperatureHumidityPressure
High95 °F (Feb 20, 12:00 PM)94% (Feb 21, 5:30 AM)29.86 "Hg (Feb 21, 5:30 AM)
Low75 °F (Mar 4, 4:00 AM)38% (Mar 3, 1:30 PM)29.59 "Hg (Mar 6, 3:00 PM)
Average85 °F70%29.75 "Hg
* Reported Feb 20 7:00 AM — Mar 7 7:00 AM, Townsville, Weather by CustomWeather, © 2015

Note: Actual official high and low records may vary slightly from our data, if they occured in-between our weather recording intervals... More about our weather records

Advertising

Townsville weather history for previous 24 hours

 ConditionsComfort  
Time TempWeatherWind HumidityBarometerVisibility
7:00 AM
Sat, Mar 7
79 °FBroken clouds.3 mph89%29.68 "HgN/A
6:30 AM79 °FBroken clouds.No wind84%29.68 "HgN/A
6:00 AM79 °FPartly cloudy.3 mph84%29.65 "HgN/A
5:30 AM77 °FClear.No wind94%29.65 "HgN/A
5:00 AM79 °FClear.No wind89%29.65 "HgN/A
4:00 AM79 °FClear.No wind89%29.65 "HgN/A
3:30 AM81 °FClear.5 mph89%29.68 "HgN/A
3:00 AM81 °FClear.2 mph84%29.68 "HgN/A
2:00 AM82 °FClear.No wind79%29.71 "HgN/A
1:30 AM81 °FPassing clouds.6 mph84%29.71 "HgN/A
1:00 AM82 °FClear.7 mph84%29.71 "HgN/A
12:30 AM82 °FPassing clouds.8 mph84%29.74 "HgN/A
12:00 AM84 °FPassing clouds.8 mph79%29.74 "HgN/A
11:30 PM
Fri, Mar 6
82 °FClear.6 mph79%29.71 "HgN/A
11:00 PM82 °FClear.6 mph84%29.71 "HgN/A
10:00 PM82 °FPassing clouds.8 mph79%29.68 "HgN/A
9:30 PM84 °FPassing clouds.8 mph74%29.68 "HgN/A
9:00 PM84 °FPassing clouds.3 mph74%29.71 "HgN/A
8:30 PM82 °FPassing clouds.3 mph84%29.71 "HgN/A
8:00 PM84 °FPassing clouds.6 mph79%29.71 "HgN/A
7:30 PM84 °FPassing clouds.6 mph74%29.71 "HgN/A
7:00 PM84 °FPassing clouds.8 mph74%29.65 "HgN/A
6:00 PM86 °FPassing clouds.10 mph70%29.62 "HgN/A
5:00 PM90 °FPassing clouds.12 mph59%29.62 "HgN/A
4:30 PM91 °FPassing clouds.12 mph56%29.62 "HgN/A
4:00 PM91 °FPassing clouds.13 mph56%29.59 "HgN/A
3:30 PM91 °FPassing clouds.12 mph56%29.59 "HgN/A
3:00 PM93 °FScattered clouds.12 mph53%29.59 "HgN/A
2:30 PM93 °FScattered clouds.10 mph49%29.62 "HgN/A
2:00 PM95 °FScattered clouds.9 mph47%29.62 "HgN/A
1:00 PM95 °FPassing clouds.14 mph47%29.65 "HgN/A
12:30 PM95 °FPassing clouds.12 mph47%29.65 "HgN/A
12:00 PM93 °FPassing clouds.14 mph47%29.68 "HgN/A
11:30 AM91 °FPassing clouds.14 mph56%29.68 "HgN/A
11:00 AM91 °FPassing clouds.6 mph52%29.71 "HgN/A
10:30 AM93 °FPassing clouds.3 mph49%29.71 "HgN/A
10:00 AM88 °FPassing clouds.7 mph59%29.71 "HgN/A
9:30 AM88 °FPassing clouds.7 mph66%29.71 "HgN/A
9:00 AM86 °FPassing clouds.6 mph70%29.71 "HgN/A
8:30 AM84 °FScattered clouds.6 mph74%29.71 "HgN/A
8:00 AM82 °FScattered clouds.No wind79%29.71 "HgN/A
Weather by CustomWeather, © 2015

See weather overviewHow to use our weather pages